Weather in Brandon

Canada     49°50′29″N   99°57′40″W
temp.,
°C
wind,
m/s
gust,
m/s
humid.,
%
clouds,
%
prec.,
mm/h
press.,
hPa
HPBL,
m
24 january, mon
mon2400:00−25nnw339812 0.0 101832
03:00−27nw34965 0.0 102239
06:00−28wnw35985 0.0 102545
09:00−30wnw34985 0.0 102742
12:00−24w35895 0.0 1028136
15:00−22w48895 0.0 1027241
18:00−26w410935 0.0 1029136
21:00−28w47935 0.0 103176
25 january, tue
tue2500:00−31wnw34955 0.0 103345
03:00−32w35975 0.0 103549
06:00−32w47965 0.0 103680
09:00−32w37975 0.0 103880
12:00−26w46925 0.0 1036147
15:00−22wsw36915 0.0 1034201
18:00−26sw499051 0.0 1032104
21:00−25sw4128255 0.0 1027149
26 january, wed
wed2600:00−18sw51775100 0.0 1020336
03:00−11sw71979100 0.0 1011423
06:00−6sw102284100 0.0 1003567
09:00−3wsw8168357 0.0 1001454
12:000w81489100 0.0 10001007
15:00+1w9158596 0.0 1000970
18:00−1nw111691100 0.1 1003872
21:00−6nw7128593 0.1 1012724
27 january, thu
thu2700:00−9nnw61284100 0.1 1019727
03:00−14nnw5108597 0.0 1025390
06:00−19nnw36915 0.0 103174
09:00−28nw22995 0.0 103710
12:00−21w23905 0.0 1036105
15:00−18wsw36925 0.0 1034241
18:00−21sw379783 0.0 103377
21:00−17wsw4996100 0.0 1030131
28 january, fri
fri2800:00−15wsw3796100 0.0 1028126
03:00−13wsw3696100 0.0 1027116
06:00−14wsw239797 0.0 102542
09:00−16w229853 0.0 102619
12:00−10nw22935 0.0 1026103
15:00−8nw11935 0.0 102647
18:00−15ssw1199100 0.0 10289
21:00−16se1199100 0.0 102811